[[{"header":{"parameterUnit":"m.s-1","parameterCategory":1,"la1":30.2991,"la2":30.254,"lo1":-89.0895,"lo2":-89.0444,"dy":0.0017,"dx":0.0017,"nx":28,"ny":28,"refTime":"2023-10-03T21:00:00:Z","depth":0,"parameterNumber":2,"parameterNumberName":"U-component_of_WINDS"},"data":[0,0,0,0,0,0,0,0,0,0,0,0,0,0,0,0,0,0,0,0,0,0,0,0,0,0,0,0,0,0,0,0,0,0,0,0,0,0,0,0,0,0,0,0,0,0,0,0,0,0,0,0,0,0,0,0,0,0,-3.4886,-3.4885,0,-3.4838,-3.4838,-3.4837,-3.4652,-3.4647,-3.4643,-3.4639,-3.4595,-3.4598,-3.46,0,0,0,0,0,0,0,0,0,0,0,0,0,-3.482,-3.4822,-3.4886,-3.4885,-3.4885,-3.4838,-3.4838,-3.4837,-3.4652,-3.4647,-3.4642,-3.4637,-3.4594,-3.4597,-3.4601,0,0,0,0,0,0,0,0,0,0,0,0,0,-3.4819,-3.4823,-3.4886,-3.4787,-3.4777,-3.4838,-3.4838,-3.4837,-3.4654,-3.4647,-3.4641,-3.4635,-3.4593,-3.4597,-3.4601,-3.4755,0,0,-3.4614,-3.4616,0,0,0,0,0,0,0,0,-3.4819,-3.4821,-3.4802,-3.4794,-3.4783,-3.4744,-3.4798,-3.481,-3.4655,-3.4701,-3.4639,-3.4632,-3.465,-3.4649,-3.4654,-3.4753,-3.4751,-3.4614,-3.4617,-3.4619,-3.462,0,0,0,0,0,0,0,-3.4819,-3.4822,-3.4867,-3.4802,-3.4791,-3.4746,-3.4739,-3.4799,-3.4712,-3.4696,-3.4683,-3.4679,-3.4644,-3.4651,-3.4652,-3.4751,-3.4614,-3.4618,-3.4621,-3.4622,-3.4973,-3.4979,0,0,0,0,0,0,-3.4833,-3.4823,-3.4868,-3.4865,-3.4786,-3.4752,-3.4744,-3.4763,-3.4711,-3.4697,-3.4685,-3.4671,-3.4647,-3.4647,-3.465,-3.4826,-3.4619,-3.4623,-3.4625,-3.4966,-3.4974,-3.4982,0,0,0,0,0,0,-3.4832,-3.4839,-3.487,-3.4841,-3.4841,-3.476,-3.4783,-3.4766,-3.4772,-3.4702,-3.4686,-3.4708,-3.4642,-3.4644,-3.473,-3.4822,-3.4625,-3.4628,-3.4958,-3.4969,-3.4978,-3.5181,0,0,0,0,0,0,-3.4831,-3.4839,-3.4896,-3.4843,-3.4844,-3.4951,-3.4789,-3.4769,-3.478,-3.4761,-3.472,-3.4707,-3.4637,-3.4725,-3.4734,-3.4824,-3.4632,-3.495,-3.4963,-3.4975,-3.5166,-3.5197,-3.5224,0,0,0,0,0,-3.4829,-3.4956,-3.49,-3.4907,-3.4913,-3.4957,-3.4957,-3.4873,-3.4788,-3.4845,-3.48,-3.4708,-3.4811,-3.4735,-3.4744,-3.4837,-3.4943,-3.4959,-3.4974,-3.5153,-3.5191,-3.5223,0,0,0,0,0,0,-3.5024,-3.4948,-3.4884,-3.4998,-3.4985,-3.4925,-3.4994,-3.4916,-3.4928,-3.491,-3.4807,-3.4799,-3.49,-3.4877,-3.4794,-3.4983,-3.4862,-3.488,-3.4994,-3.503,-3.5058,-3.5062,-3.4635,0,0,0,0,0,-3.508,-3.512,-3.5052,-3.5159,-3.5155,-3.5077,-3.5093,-3.5029,-3.5012,-3.5006,-3.4967,-3.4955,-3.4984,-3.5006,-3.5029,-3.5162,-3.515,-3.523,-3.5259,-3.5283,-3.53,-3.5368,-3.5403,-3.5032,-3.5032,-3.5032,0,0,-3.5196,-3.516,-3.5192,-3.5197,-3.5179,-3.5225,-3.5073,-3.5128,-3.5161,-3.5014,-3.5092,-3.5064,-3.5044,-3.5154,-3.5201,-3.5138,-3.5399,-3.5302,-3.5322,-3.5325,-3.5387,-3.5422,-3.5454,-3.5042,-3.5041,-3.5039,0,0,-3.5431,-3.5408,-3.5493,-3.5479,-3.5453,-3.54,-3.5421,-3.5373,-3.5348,-3.5424,-3.5316,-3.5354,-3.5407,-3.5397,-3.5399,-3.563,-3.5546,-3.5641,-3.5792,-3.5859,-3.5889,-3.5914,-3.5996,-3.6027,-3.5658,-3.5658,-3.5658,0,-3.5579,-3.5642,-3.5548,-3.5609,-3.5615,-3.5483,-3.557,-3.5561,-3.5546,-3.5553,-3.5483,-3.5546,-3.5523,-3.5629,-3.5685,-3.5691,-3.5712,-3.5645,-3.5892,-3.5916,-3.5939,-3.6016,-3.6047,-3.567,-3.5668,-3.5667,-3.5666,0,-3.5825,-3.587,-3.5943,-3.5929,-3.5943,-3.6018,-3.5936,-3.5962,-3.5897,-3.5852,-3.5932,-3.59,-3.5914,-3.5935,-3.5873,-3.6032,-3.5994,-3.591,-3.5785,-3.5987,-3.6058,-3.6087,-3.5686,-3.5682,-3.5679,-3.5676,0,0,-3.6181,-3.6114,-3.6142,-3.6134,-3.6097,-3.613,-3.6199,-3.6211,-3.6235,-3.623,-3.6285,-3.6332,-3.6254,-3.6256,-3.6192,-3.6252,-3.6437,-3.616,-3.6157,-3.6212,-3.661,-3.6674,-3.671,-3.6381,-3.6386,-3.6391,-3.6612,0,-3.6404,-3.6515,-3.6433,-3.6559,-3.6599,-3.6475,-3.6535,-3.6519,-3.6479,-3.6509,-3.6464,-3.6499,-3.6393,-3.6394,-3.6447,-3.6403,-3.6516,-3.6386,-3.6432,-3.6435,-3.6441,-3.6747,-3.6814,-3.7024,-3.6639,-3.6644,-3.6647,0,-3.6679,-3.6683,-3.6813,-3.6766,-3.678,-3.6835,-3.684,-3.6869,-3.685,-3.6816,-3.6819,-3.6739,-3.6804,-3.6683,-3.6771,-3.6685,-3.6699,-3.6681,-3.6687,-3.6688,-3.6553,-3.6756,-3.7089,-3.7121,-3.669,-3.6687,-3.6684,0,-3.6925,-3.6964,-3.7046,-3.7043,-3.6991,-3.7032,-3.7013,-3.6986,-3.6999,-3.7004,-3.7011,-3.7025,-3.7032,-3.7045,-3.6971,-3.6889,-3.707,-3.6942,-3.7044,-3.7046,-3.7087,-3.7086,-3.7428,-3.7098,-3.7098,-3.7097,-3.7096,0,-3.7182,-3.7267,-3.7155,-3.7206,-3.7297,-3.7203,-3.7296,-3.7263,-3.7241,-3.7284,-3.7178,-3.7222,-3.7122,-3.7155,-3.7099,-3.718,-3.7185,-3.716,-3.7144,-3.7169,-3.7173,-3.7177,-3.716,-3.7105,-3.7103,-3.7102,-3.71,0,-3.7472,-3.7401,-3.7482,-3.7426,-3.7414,-3.7484,-3.7436,-3.7481,-3.7433,-3.749,-3.7497,-3.7424,-3.7457,-3.7385,-3.741,-3.7371,-3.7488,-3.7449,-3.7494,-3.7482,-3.7588,-3.758,-3.7945,-3.7988,-3.7632,-3.7636,-3.7638,0,-3.7641,-3.7702,-3.7652,-3.7672,-3.7658,-3.7693,-3.7704,-3.7614,-3.7631,-3.7613,-3.7661,-3.7686,-3.77,-3.7761,-3.771,-3.7728,-3.7689,-3.7816,-3.7691,-3.7714,-3.769,-3.7687,-3.7693,-3.7841,-3.7846,-3.7849,-3.7852,0,-3.7947,-3.7908,-3.7929,-3.7937,-3.7954,-3.7957,-3.7952,-3.7976,-3.788,-3.7905,-3.7937,-3.7948,-3.7972,-3.7998,-3.8005,-3.7986,-3.7905,-3.7892,-3.7916,-3.7943,-3.7966,-3.7954,-3.7564,-3.7884,-3.7881,-3.7878,-3.7877,-3.7875,-3.818,-3.8229,-3.8201,-3.8227,-3.8214,-3.8212,-3.8252,-3.8209,-3.8233,-3.8245,-3.8191,-3.8235,-3.8214,-3.8214,-3.8204,-3.8238,-3.8181,-3.8217,-3.8226,-3.8236,-3.8253,-3.7961,-3.8239,-3.8238,-3.8237,-3.8237,-3.8236,0,-3.848,-3.8456,-3.8481,-3.8477,-3.8498,-3.8418,-3.8409,-3.8432,-3.8472,-3.8458,-3.8475,-3.8512,-3.8537,-3.8489,-3.8506,-3.8543,-3.8506,-3.8551,-3.8547,-3.8544,-3.8303,-3.828,-3.8581,-3.8581,-3.8581,-3.858,-3.858,-3.858,-3.8639,-3.8717,-3.8675,-3.8746,-3.8721,-3.8763,-3.8764,-3.8763,-3.8751,-3.8797,-3.8817,-3.8784,-3.8757,-3.8772,-3.8792,-3.8777,-3.8788,-3.8846,-3.8819,-3.8595,-3.8561,-3.8529,-3.8506,-3.885,-3.885,-3.9056,-3.9058,-3.9059]},{"header":{"parameterUnit":"m.s-1","parameterCategory":1,"la1":30.2991,"la2":30.254,"lo1":-89.0895,"lo2":-89.0444,"dy":0.0017,"dx":0.0017,"nx":28,"ny":28,"refTime":"2023-10-03T21:00:00:Z","depth":0,"parameterNumber":3,"parameterNumberName":"V-component_of_WINDS"},"data":[0,0,0,0,0,0,0,0,0,0,0,0,0,0,0,0,0,0,0,0,0,0,0,0,0,0,0,0,0,0,0,0,0,0,0,0,0,0,0,0,0,0,0,0,0,0,0,0,0,0,0,0,0,0,0,0,0,0,-0.4969,-0.4971,0,-0.5119,-0.5121,-0.5122,-0.524,-0.5241,-0.5242,-0.5243,-0.5393,-0.5396,-0.5399,0,0,0,0,0,0,0,0,0,0,0,0,0,-0.478,-0.4783,-0.4969,-0.4971,-0.4973,-0.5119,-0.5121,-0.5123,-0.524,-0.5241,-0.5243,-0.5244,-0.5392,-0.5396,-0.5399,0,0,0,0,0,0,0,0,0,0,0,0,0,-0.4889,-0.4784,-0.4969,-0.5049,-0.5057,-0.5118,-0.5121,-0.5123,-0.524,-0.5241,-0.5243,-0.5245,-0.5391,-0.5396,-0.54,-0.5392,0,0,-0.5413,-0.5415,0,0,0,0,0,0,0,0,-0.4883,-0.4896,-0.5035,-0.5043,-0.5053,-0.5163,-0.511,-0.5213,-0.5239,-0.517,-0.5243,-0.5245,-0.5315,-0.5326,-0.535,-0.5399,-0.5406,-0.5414,-0.5416,-0.5418,-0.5419,0,0,0,0,0,0,0,-0.4875,-0.489,-0.5028,-0.5037,-0.5048,-0.5076,-0.5093,-0.513,-0.5231,-0.5176,-0.5185,-0.5202,-0.532,-0.5345,-0.5354,-0.5408,-0.5414,-0.5417,-0.542,-0.5422,-0.5457,-0.5456,0,0,0,0,0,0,-0.4856,-0.4883,-0.5024,-0.5033,-0.4971,-0.5078,-0.5098,-0.5126,-0.5231,-0.5249,-0.52,-0.5207,-0.5337,-0.5349,-0.536,-0.5357,-0.5418,-0.5422,-0.5425,-0.5459,-0.5457,-0.5455,0,0,0,0,0,0,-0.4851,-0.4867,-0.5017,-0.4961,-0.4982,-0.508,-0.511,-0.5128,-0.5153,-0.5249,-0.5267,-0.5207,-0.5339,-0.5354,-0.5383,-0.5364,-0.5424,-0.5428,-0.5461,-0.5458,-0.5456,-0.5352,0,0,0,0,0,0,-0.4845,-0.4865,-0.4864,-0.496,-0.4984,-0.5039,-0.5109,-0.5129,-0.5161,-0.5171,-0.5261,-0.5277,-0.5342,-0.5376,-0.5388,-0.5371,-0.5432,-0.5463,-0.546,-0.5457,-0.5357,-0.5346,-0.5336,0,0,0,0,0,-0.4838,-0.4828,-0.4863,-0.4879,-0.4985,-0.5038,-0.5052,-0.5127,-0.5159,-0.5158,-0.5219,-0.5274,-0.5365,-0.5378,-0.5392,-0.5377,-0.5465,-0.5461,-0.5457,-0.5362,-0.5348,-0.5337,0,0,0,0,0,0,-0.4726,-0.4842,-0.4882,-0.4903,-0.496,-0.5057,-0.5059,-0.511,-0.5158,-0.5165,-0.5256,-0.5275,-0.5294,-0.5339,-0.5352,-0.5374,-0.5422,-0.542,-0.5345,-0.5332,-0.5322,-0.531,-0.5435,0,0,0,0,0,-0.4704,-0.4738,-0.4837,-0.4845,-0.4872,-0.496,-0.4986,-0.5039,-0.5101,-0.5125,-0.5189,-0.5246,-0.5287,-0.5312,-0.5356,-0.5365,-0.5385,-0.5361,-0.535,-0.5341,-0.5339,-0.5346,-0.5336,-0.5443,-0.5443,-0.5443,0,0,-0.4658,-0.4726,-0.4741,-0.4825,-0.4875,-0.4907,-0.4979,-0.501,-0.5035,-0.513,-0.5162,-0.521,-0.5279,-0.5298,-0.531,-0.5336,-0.5314,-0.5336,-0.5328,-0.5331,-0.5341,-0.533,-0.5321,-0.544,-0.5441,-0.5441,0,0,-0.4591,-0.4646,-0.4659,-0.4708,-0.4783,-0.4842,-0.4845,-0.4935,-0.4971,-0.5005,-0.5076,-0.5106,-0.5175,-0.5222,-0.5254,-0.5204,-0.5256,-0.5216,-0.516,-0.5166,-0.5157,-0.515,-0.5131,-0.5123,-0.5213,-0.5213,-0.5213,0,-0.4524,-0.4576,-0.4658,-0.4685,-0.4719,-0.4808,-0.4821,-0.4864,-0.4949,-0.4969,-0.4998,-0.5087,-0.514,-0.517,-0.5158,-0.5182,-0.5187,-0.5205,-0.5152,-0.5146,-0.5141,-0.5123,-0.5116,-0.5207,-0.5208,-0.5209,-0.5209,0,-0.449,-0.4525,-0.4526,-0.4607,-0.4641,-0.466,-0.4744,-0.4769,-0.4819,-0.4874,-0.4906,-0.4973,-0.5031,-0.5043,-0.5091,-0.5079,-0.5093,-0.5136,-0.5185,-0.5123,-0.5109,-0.5103,-0.52,-0.5202,-0.5203,-0.5205,0,0,-0.4356,-0.4482,-0.4481,-0.4518,-0.4608,-0.4636,-0.4659,-0.4717,-0.4735,-0.4791,-0.4812,-0.4868,-0.4908,-0.4945,-0.5,-0.5005,-0.4959,-0.5047,-0.505,-0.5027,-0.4949,-0.4915,-0.4906,-0.4995,-0.4994,-0.4993,-0.4942,0,-0.4302,-0.4349,-0.4424,-0.4446,-0.4479,-0.4563,-0.4583,-0.4639,-0.4691,-0.4725,-0.4783,-0.4821,-0.4871,-0.4894,-0.4903,-0.4963,-0.4944,-0.4968,-0.5013,-0.5014,-0.4992,-0.4899,-0.4864,-0.4813,-0.4937,-0.4937,-0.4936,0,-0.4246,-0.4297,-0.4323,-0.4409,-0.4426,-0.4442,-0.4501,-0.4533,-0.4598,-0.4636,-0.4676,-0.4736,-0.4764,-0.4809,-0.4847,-0.4861,-0.4884,-0.4916,-0.4916,-0.4922,-0.497,-0.4901,-0.4799,-0.4791,-0.4928,-0.4928,-0.4929,0,-0.4144,-0.422,-0.4245,-0.4274,-0.4376,-0.4386,-0.4428,-0.4496,-0.4525,-0.4576,-0.4596,-0.4649,-0.4677,-0.4716,-0.4788,-0.4814,-0.4817,-0.4869,-0.4848,-0.4846,-0.4844,-0.4843,-0.4742,-0.486,-0.486,-0.486,-0.486,0,-0.4075,-0.4087,-0.42,-0.4215,-0.4231,-0.4316,-0.4329,-0.4379,-0.4438,-0.4463,-0.4539,-0.4561,-0.4656,-0.4688,-0.4745,-0.4767,-0.4779,-0.4809,-0.4824,-0.4802,-0.4798,-0.4817,-0.4822,-0.4858,-0.4859,-0.4859,-0.4859,0,-0.3964,-0.404,-0.4073,-0.4167,-0.4191,-0.4198,-0.4278,-0.4295,-0.4352,-0.4383,-0.4395,-0.4483,-0.4525,-0.4601,-0.4665,-0.4703,-0.4713,-0.4739,-0.4691,-0.47,-0.4674,-0.4675,-0.4582,-0.4573,-0.4696,-0.4695,-0.4694,0,-0.3915,-0.3926,-0.4021,-0.4044,-0.4084,-0.412,-0.4151,-0.4235,-0.4264,-0.4338,-0.4346,-0.4395,-0.4438,-0.4501,-0.457,-0.4619,-0.4646,-0.461,-0.4653,-0.4631,-0.4644,-0.4642,-0.4643,-0.4599,-0.4597,-0.4596,-0.4595,0,-0.3819,-0.3856,-0.3898,-0.3953,-0.3988,-0.4035,-0.4086,-0.41,-0.4195,-0.4223,-0.4268,-0.4301,-0.4367,-0.4413,-0.4472,-0.4515,-0.4569,-0.4581,-0.4578,-0.4555,-0.4526,-0.454,-0.4662,-0.4582,-0.4584,-0.4584,-0.4585,-0.4586,-0.3736,-0.375,-0.3819,-0.3863,-0.391,-0.3956,-0.3977,-0.4036,-0.4075,-0.4135,-0.4182,-0.4223,-0.4287,-0.4371,-0.4411,-0.4443,-0.4469,-0.4465,-0.4464,-0.4462,-0.4452,-0.4522,-0.4454,-0.4455,-0.4455,-0.4455,-0.4456,0,-0.3643,-0.3692,-0.3732,-0.3801,-0.3835,-0.3886,-0.3944,-0.3969,-0.4004,-0.406,-0.4101,-0.4151,-0.4197,-0.4269,-0.432,-0.4332,-0.4358,-0.4342,-0.4342,-0.435,-0.4427,-0.4424,-0.432,-0.432,-0.432,-0.432,-0.432,-0.432,-0.3599,-0.3624,-0.3669,-0.3718,-0.3767,-0.3808,-0.3837,-0.3879,-0.3924,-0.3977,-0.4016,-0.4063,-0.4125,-0.4181,-0.4224,-0.4245,-0.4259,-0.4235,-0.4262,-0.4332,-0.4345,-0.4357,-0.4354,-0.4237,-0.4237,-0.4183,-0.4182,-0.4182]}]]